www.pogodaiklimat.ru

Погода и климат >> Архив погоды >> Монголия >> Бат Олжий Вунд


ПОГОДА в Бат Олжий Вунд

  • Прогноз погоды в Бат Олжий Вунд
  • Монитор погоды в Бат Олжий Вунд

АРХИВ ПОГОДЫ в Бат Олжий Вунд

Время (UTC), дата Ветер
(напр.,м/с)
 
Видим.   Явления Облачность Т
(С)
Тd
(С)
f
(%)
Тe
(С)
Тes
(С)
Комфортность P
(гПа)
Po
(гПа)
Тmin
(С)
Tmax
(С)
R
(мм)
R24
(мм)
S
(см)
21 10.06 З 5 20 км 6/0
[Ac As]
+16.2 +5.8 50 +15 +15 1004.1 855.7
00 11.06 СЗ 3 20 км 3/0
[Ac cast]
+20.0 +8.2 47 +21 +24 комфорт 1003.9 857.3 +15.5
03 11.06 СЗ 5 20 км 3/0
[Ac cast]
+23.7 +13.7 53 +26 +32 жарко 1002.7 857.9
06 11.06 СЗ 7 20 км 6/0
[Ac As]
+25.8 +7.4 31 +26 +29 жарко 1001.3 857.7
09 11.06 С 7 20 км 8/8 1000 м
[Cb calv]
+25.0 +5.6 29 +25 +25 комфорт 1001.9 857.8
12 11.06 С 7 20 км 8/8 1000 м
[Sc]
+21.8 +4.6 32 +22 +22 комфорт 1004.6 858.7 +27.7
15 11.06 С 3 н/о {гроза} 8/8 1000 м
[Sc]
+17.8 +4.7 42 +18 +18 1008.8 860.4
18 11.06 С 1 н/о {гроза} 6/4 1000 м
[Cb calv Ac lent]
+13.0 +4.9 58 +13 +13 1013.0 861.7
21 11.06 С 2 20 км 8/6 1000 м
[Sc Ac As]
+10.8 +4.6 66 +10 +10 1015.7 862.9
00 12.06 З 3 20 км 9/9 1000 м
[Sc]
+12.2 +5.4 63 +11 +11 1017.1 864.8 +10.6
03 12.06 С 3 20 км 8/3 1000 м
[Frnb As trans]
+15.8 +6.0 52 +15 +21 1015.9 865.5
06 12.06 С 3 20 км 8/4 1000 м
[Cu med, cong Ac As]
+19.7 +6.4 42 +21 +25 комфорт 1012.6 864.6
09 12.06 СВ 3 20 км 6/6 1000 м
[Cu med, cong]
+21.1 +5.2 35 +22 +24 комфорт 1010.4 863.3
12 12.06 штиль 0 20 км 5/0
[Ac As]
+21.5 +5.3 35 +22 +22 комфорт 1009.8 863.0 +23.3
15 12.06 СВ 1 н/о 5/0
[Ac As]
+15.5 +2.1 40 +16 +16 1013.3 863.2
18 12.06 штиль 0 н/о ясно +13.2 +2.1 47 +13 +13 1015.1 863.6
21 12.06 штиль 0 н/о ясно +11.0 +0.8 49 +11 +11 1015.9 863.2
00 13.06 Ю 3 20 км 4/0
[Ac trans]
+18.7 +5.7 42 +19 +22 1011.7 863.3 +10.9
03 13.06 ЮВ 3 20 км 8/0
[Cs]
+23.0 +5.2 31 +23 +34 комфорт 1008.9 862.9
06 13.06 Ю 3 20 км 8/3 1000 м
[Cu hum Cs]
+27.3 +6.6 27 +27 +36 жарко 1004.1 860.7
09 13.06 З 5 20 км 6/6 1000 м
[Cu med, cong]
+29.2 +6.7 24 +28 +30 жарко 1000.8 858.7
12 13.06 Ю 3 20 км 8/8 1000 м
[Sc]
+27.5 +6.9 27 +27 +27 жарко 1000.6 857.8 +30.1
15 13.06 ЮЗ 3 н/о 6/6 1000 м
[Sc]
+23.2 +7.8 37 +24 +24 комфорт 1002.8 857.8
18 13.06 Ю 5 н/о 6/6 1000 м
[Sc]
+22.9 +6.5 35 +24 +24 комфорт 1002.5 857.4
21 13.06 Ю 3 20 км 8/0
[Ac As]
+21.2 +3.6 31 +21 +21 комфорт 1002.5 857.2
00 14.06 Ю 5 20 км 9/0
[As trans]
+22.0 +2.2 27 +22 +23 комфорт 1002.5 857.0 +19.0
03 14.06 Ю 5 20 км 10/3 1000 м
[Frnb As trans]
+26.0 +3.4 23 +25 +27 комфорт 1000.5 857.1
06 14.06 Ю 7 20 км 10/3 1000 м
[Frnb As trans]
+27.5 +5.7 25 +27 +28 жарко 998.5 856.0
09 14.06 Ю 5 20 км 10/0
[As trans]
+27.8 +6.0 25 +27 +29 жарко 997.3 855.1
12 14.06 Ю 3 20 км 10/10 1000 м
[Sc]
+26.4 +4.1 24 +25 +25 комфорт 997.2 854.4 +28.7
15 14.06 Ю 3 н/о 10/10 1000 м
[Sc]
+24.0 +3.8 27 +24 +24 комфорт 997.9 854.0
18 14.06 Ю 4 н/о слаб. дождь 10/10 1000 м
[Sc]
+18.9 +8.2 50 +19 +19 1000.7 854.0
21 14.06 Ю 8 10 км осадки на расстоянии 10/10 1000 м
[Sc]
+15.7 +10.8 73 +14 +14 1001.3 853.0
00 15.06 Ю 5 20 км {дождь} 8/8 1000 м
[Sc]
+16.0 +11.4 74 +15 +15 1000.5 852.5 +12.0 0.1
03 15.06 З 5 20 км 8/8 1000 м
[Sc]
+20.4 +10.1 52 +22 +23 комфорт 998.0 852.4
06 15.06 Ю 3 20 км 8/8 1000 м
[Sc]
+23.5 +9.4 41 +24 +27 комфорт 994.7 851.0
09 15.06 С 5 20 км {гроза, ливн. осадки} 8/8 1000 м
[Sc]
+18.2 +11.0 63 +18 +19 996.6 850.2
12 15.06 СВ 3 20 км {гроза, ливн. осадки} 8/8 1000 м
[Sc]
+17.8 +11.0 64 +18 +18 850.7 +25.3 10
15 15.06 СВ 1 н/о зарница {гроза} 5/5 1000 м
[Cb calv]
+12.7 +9.0 78 +13 +13 1000.4 850.8
18 15.06 штиль 0 н/о {гроза} 3/3 1000 м
[Cb calv]
+11.6 +8.0 79 +11 +11 1000.7 850.6
21 15.06 З 4 20 км 8/8 1000 м
[Sc]
+11.4 +8.1 80 +9 +9 1001.2 850.9
00 16.06 З 3 10 км гроза, ливневой дождь 9/9 600 м
[Cb cap]
+12.2 +9.0 81 +11 +11 1001.9 851.9 +11.3 2
03 16.06 С 1 20 км {гроза, ливн. осадки} 8/8 1000 м
[Sc]
+14.0 +10.4 79 +14 +18 1002.1 852.9
06 16.06 Ю 3 20 км гроза без осадков {ливн. осадки} 9/8 1000 м
[Sc]
+17.2 +9.3 60 +17 +19 1000.1 852.7
09 16.06 С 5 20 км {дождь} 8/8 1000 м
[Sc]
+17.4 +9.9 61 +17 +18 1000.0 852.7
12 16.06 В 3 20 км гроза без осадков {ливн. осадки} 8/8 1000 м
[Sc]
+17.0 +9.6 62 +17 +17 1001.5 853.8 +19.1 2
15 16.06 СВ 1 н/о зарница {гроза, ливн. осадки} 8/8 1000 м
[Sc]
+15.3 +10.4 73 +16 +16 1003.1 854.4
18 16.06 З 3 н/о {гроза, ливн. осадки} 10/10 1000 м
[Sc]
+13.3 +10.3 82 +12 +12 1004.9 855.0
21 16.06 штиль 0 20 км 10/10 1000 м
[Sc]
+11.0 +8.2 83 +10 +10 1007.0 855.6
00 17.06 З 4 10 км осадки на расстоянии 8/8 1000 м
[Sc]
+12.9 +9.4 79 +11 +12 1006.8 856.4 +10.8 5
03 17.06 З 2 20 км 8/8 1000 м
[Cb calv]
+16.1 +9.3 64 +16 +19 1005.7 857.0
06 17.06 СЗ 3 20 км 8/8 1000 м
[Cb calv]
+18.9 +9.6 55 +20 +23 1004.3 857.1
09 17.06 штиль 0 20 км 4/4 1000 м
[Cu med, cong]
+20.6 +6.4 40 +21 +28 комфорт 1002.8 856.6
12 17.06 СВ 3 20 км 6/3 1000 м
[Cu med, cong Cs]
+20.0 +6.7 42 +21 +21 комфорт 1003.2 856.7 +22.1
15 17.06 В 1 н/о ясно +16.0 +7.2 56 +17 +17 1007.8 858.7
18 17.06 В 1 н/о 5/0
[Ac lent Ci fib]
+13.8 +8.3 69 +14 +14 1009.7 859.3

 

Местоположение метеостанции Бат Олжий Вунд (Монголия): широта 46.97 долгота 103.80 высота над уровнем моря 1358 м.

В архиве по умолчанию представлена погода в Бат Олжий Вунд за последнюю неделю. Архивные данные за месяц целиком и за предыдущие месяцы, начиная с января 2011 года, Вы можете получить, выбрав интересующий диапазон дат из раскрывающегося списка и нажав кнопку "Ввод!".


*Определитесь, кто Вы:
робот инопланетянин человек

Внимание! Время в таблицах - всемирное. Для получения местного времени необходимо прибавить поправку, которая равна 8 ч.

Смотрите также архив погоды в соседних городах и на ближайших метеорологических станциях:

Погода в Хужирте (Монголия) (79 км)
Погода в Арвайхээре (Монголия) (110 км)
Погода в Сайкхан-Ову (Монголия) (169 км)
Погода в Цэцэрлэге (Монголия) (185 км)
Погода в Булгане (Монголия) (204 км)
Погода в Мандалгоби (Монголия) (232 км)
Погода в Улан-Батор аэропорту (Монголия) (250 км)
Погода в Эрдэнэмандале (Монголия) (251 км)
Погода в Улан-Баторе (Монголия) (253 км)
Погода в Баянхонгоре (Монголия) (256 км)

Пояснения к столбцам:

Ветер - указаны скорость ветра в м/с - средняя за 10 мин, порывы в срок и между сроками (в фигурных скобках) и направление, откуда дует ветер: С - северный, СВ - северо-восточный, В - восточный, ЮВ - юго-восточный, Ю - южный, ЮЗ - юго-западный, З - западный, СЗ - северо-западный.
Видимость - горизонтальная дальность видимости в метрах или километрах. При видимости от 1 до 10 км при отсутствии осадков обычно наблюдается дымка, при ухудшении видимости до 1 км и менее - туман. В сухую погоду видимость может ухудшаться дымом, пылью или мглою.
Явления - указаны атмосферные явления, наблюдавшиеся в срок или в последний час перед сроком; фигурными скобками обозначены явления, наблюдавшиеся между сроками (за 1-3 часа до срока); квадратными скобками обозначены град или гололедные отложения с указанием их диаметра в мм.
Облачность - указаны через наклонную черту общая и нижняя облачность в баллах и высота нижней границы облаков в метрах; квадратными скобками обозначены формы облаков: Ci - перистые, Cs - перисто-слоистые, Cc - перисто-кучевые, Ac - высококучевые, As - высокослоистые, Sc - слоисто-кучевые, Ns - слоисто-дождевые, Cu - кучевые, Cb - кучево-дождевые. Подробнее классификацию облаков см. в Атласе облаков (PDF).
T - Температура воздуха - температура, измеренная на высоте 2 м над землей.
Td - Температура точки росы - температура, при понижении до которой содержащийся в воздухе водяной пар достигнет насыщения.
f - Относительная влажность воздуха - влажноcть воздуха, измеренная на высоте 2 м над землей.
Te - Эффективная температура - температура, которую ощущает одетый по сезону человек в тени. Характеристика душности погоды. При расчете учитывается влияние влажности воздуха и скорости ветра на теплоощущения человека.
Tes - Эффективная температура на солнце - температура, которую ощущает человек, с поправкой на солнечный нагрев. Характеристика знойности погоды. Зависит от высоты солнца над горизонтом, облачности и скорости ветра. Ночью, в пасмурную погоду, а также при ветре 12 м/с и более поправка равна нулю.
P - Атмосферное давление - приведенное к уровню моря атмосферное давление.
Po - Атмосферное давление - измеренное на уровне метеостанции атмосферное давление.
Tmin - Минимальная температура - минимум температуры воздуха на высоте 2 м над землей.
Tmax - Максимальная температура - максимум температуры воздуха на высоте 2 м над землей.
R - Количество осадков - Количество выпавших осадков за период времени, мм. При наведении курсора мыши на число - период времени, за который выпало указанное количество осадков.
R24 - Количество осадков - Количество выпавших осадков за 24 часа, мм.
S - Снежный покров - Высота снежного покрова, см. При наведении курсора мыши на число - состояние снежного покрова и степень покрытия местности в баллах.